Weather History for Juneau, WI

Change the Weather History Date:

Monday, October 1, 2012

  Actual Average Record
Temperature  
Mean Temperature 50 °F -  
Max Temperature 64 °F 62 °F 87 °F (1971)
Min Temperature 37 °F 43 °F 29 °F (1993)
Degree Days  
Heating Degree Days 14    
Moisture  
Dew Point 39 °F    
Average Humidity 67    
Maximum Humidity 100    
Minimum Humidity 32    
Precipitation  
Precipitation 0.00 in - - ()
Sea Level Pressure  
Sea Level Pressure 29.91 in    
Wind  
Wind Speed 1 mph (SE)    
Max Wind Speed 8 mph    
Max Gust Speed -    
Visibility 10 miles    
Events      
Averages and records for this station are not official NWS values.
T = Trace of Precipitation, MM = Missing Value Source: NWS Daily Summary

Daily Weather History Graph

Daily Weather History Graph

Search for Another Location

Airport:

Trip Planner

Search our weather history database for the weather conditions in past years. The results will help you decide how hot, cold, wet, or windy it might be!

Date:

Astronomy

Oct. 01, 2012 Rise Set
Actual Time 6:52 AM CDT 6:34 PM CDT
Civil Twilight 6:24 AM CDT 7:03 PM CDT
Nautical Twilight 5:51 AM CDT 7:36 PM CDT
Astronomical Twilight 5:17 AM CDT 8:09 PM CDT
Moon 7:07 PM CDT (10/1) 8:26 AM CDT (10/1)
Length of Visible Light 12h 39m
Length of Day
11h 42m
Full, 98% of the Moon is Illuminated
Oct 1
Full
Oct 8
Last Quarter
Oct 15
New
Oct 21
First Quarter
Oct 29
Full

Hourly Weather History & Observations

Time (CDT) Temp. Windchill Dew Point Humidity Pressure Visibility Wind Dir Wind Speed Gust Speed Precip Events Conditions
12:15 AM 42.8 °F - 37.4 °F 81% 29.97 in 10.0 mi Calm Calm - N/A   Clear
12:35 AM 42.8 °F - 37.4 °F 81% 29.96 in 10.0 mi Calm Calm - N/A   Clear
12:55 AM 42.8 °F - 37.4 °F 81% 29.96 in 10.0 mi Calm Calm - N/A   Clear
1:15 AM 42.8 °F - 37.4 °F 81% 29.96 in 10.0 mi Calm Calm - N/A   Clear
1:35 AM 42.8 °F - 37.4 °F 81% 29.96 in 10.0 mi Calm Calm - N/A   Clear
1:55 AM 41.0 °F - 39.2 °F 93% 29.95 in 10.0 mi Calm Calm - N/A   Clear
2:15 AM 41.0 °F - 39.2 °F 93% 29.95 in 10.0 mi Calm Calm - N/A   Clear
2:35 AM 37.4 °F - 37.4 °F 100% 29.95 in 10.0 mi Calm Calm - N/A   Clear
3:15 AM 39.2 °F - 39.2 °F 100% 29.94 in 7.0 mi Calm Calm - N/A   Clear
3:35 AM 42.8 °F - 41.0 °F 93% 29.93 in 10.0 mi Calm Calm - N/A   Clear
3:55 AM 41.0 °F - 39.2 °F 93% 29.93 in 10.0 mi Calm Calm - N/A   Clear
4:15 AM 37.4 °F - 37.4 °F 100% 29.93 in 10.0 mi Calm Calm - N/A   Clear
4:35 AM 41.0 °F - 41.0 °F 100% 29.93 in 10.0 mi Calm Calm - N/A   Clear
5:15 AM 37.4 °F - 37.4 °F 100% 29.93 in 5.0 mi Calm Calm - N/A   Clear
5:35 AM 39.2 °F - 39.2 °F 100% 29.93 in 10.0 mi Calm Calm - N/A   Clear
5:55 AM 41.0 °F - 39.2 °F 93% 29.93 in 10.0 mi Calm Calm - N/A   Clear
6:15 AM 39.2 °F - 39.2 °F 100% 29.94 in 10.0 mi Calm Calm - N/A   Clear
6:35 AM 39.2 °F - 37.4 °F 93% 29.93 in 10.0 mi Calm Calm - N/A   Clear
6:55 AM 39.2 °F - 37.4 °F 93% 29.94 in 10.0 mi Calm Calm - N/A   Clear
7:15 AM 37.4 °F 33.8 °F 37.4 °F 100% 29.94 in 2.0 mi East 4.6 mph - N/A   Scattered Clouds
7:35 AM 39.2 °F 35.9 °F 39.2 °F 100% 29.94 in 4.0 mi East 4.6 mph - N/A   Mostly Cloudy
7:55 AM 41.0 °F - 41.0 °F 100% 29.95 in 3.0 mi Calm Calm - N/A   Scattered Clouds
8:15 AM 41.0 °F - 41.0 °F 100% 29.95 in 10.0 mi Calm Calm - N/A   Clear
8:35 AM 42.8 °F 41.1 °F 42.8 °F 100% 29.95 in 10.0 mi ESE 3.5 mph - N/A   Clear
8:55 AM 44.6 °F - 44.6 °F 100% 29.95 in 10.0 mi Calm Calm - N/A   Clear
9:15 AM 48.2 °F - 44.6 °F 87% 29.95 in 10.0 mi Calm Calm - N/A   Clear
9:35 AM 50.0 °F - 42.8 °F 76% 29.95 in 10.0 mi Calm Calm - N/A   Clear
9:55 AM 53.6 °F - 44.6 °F 72% 29.95 in 10.0 mi Calm Calm - N/A   Clear
10:15 AM 57.2 °F - 44.6 °F 63% 29.95 in 10.0 mi South 4.6 mph - N/A   Clear
10:35 AM 59.0 °F - 44.6 °F 59% 29.95 in 10.0 mi SSE 5.8 mph - N/A   Clear
10:55 AM 59.0 °F - 41.0 °F 51% 29.94 in 10.0 mi SW 3.5 mph - N/A   Clear
11:15 AM 59.0 °F - 37.4 °F 45% 29.94 in 10.0 mi WSW 5.8 mph - N/A   Clear
11:35 AM 60.8 °F - 37.4 °F 42% 29.93 in 10.0 mi South 3.5 mph - N/A   Clear
11:55 AM 60.8 °F - 37.4 °F 42% 29.92 in 10.0 mi SSE 5.8 mph - N/A   Clear
12:15 PM 60.8 °F - 37.4 °F 42% 29.91 in 10.0 mi SW 5.8 mph - N/A   Clear
12:35 PM 60.8 °F - 35.6 °F 39% 29.91 in 10.0 mi SW 3.5 mph - N/A   Clear
1:15 PM 60.8 °F - 35.6 °F 39% 29.89 in 10.0 mi Calm Calm - N/A   Clear
1:35 PM 62.6 °F - 35.6 °F 37% 29.88 in 10.0 mi SSE 4.6 mph - N/A   Clear
1:55 PM 62.6 °F - 33.8 °F 34% 29.88 in 10.0 mi Calm Calm - N/A   Clear
2:15 PM 62.6 °F - 33.8 °F 34% 29.87 in 10.0 mi SSE 3.5 mph - N/A   Clear
2:55 PM 62.6 °F - 33.8 °F 34% 29.87 in 10.0 mi NE 3.5 mph - N/A   Clear
3:15 PM 64.4 °F - 33.8 °F 32% 29.86 in 10.0 mi East 4.6 mph - N/A   Clear
3:35 PM 64.4 °F - 33.8 °F 32% 29.86 in 10.0 mi SE 4.6 mph - N/A   Clear
3:55 PM 62.6 °F - 33.8 °F 34% 29.85 in 10.0 mi Calm Calm - N/A   Clear
4:15 PM 62.6 °F - 35.6 °F 37% 29.85 in 10.0 mi Calm Calm - N/A   Clear
4:35 PM 62.6 °F - 33.8 °F 34% 29.85 in 10.0 mi Calm Calm - N/A   Clear
4:55 PM 62.6 °F - 33.8 °F 34% 29.85 in 10.0 mi Calm Calm - N/A   Clear
5:15 PM 62.6 °F - 33.8 °F 34% 29.86 in 10.0 mi East 3.5 mph - N/A   Clear
5:35 PM 62.6 °F - 33.8 °F 34% 29.86 in 10.0 mi Calm Calm - N/A   Clear
5:55 PM 62.6 °F - 33.8 °F 34% 29.86 in 10.0 mi Calm Calm - N/A   Clear
6:15 PM 60.8 °F - 35.6 °F 39% 29.86 in 10.0 mi ESE 3.5 mph - N/A   Clear
6:35 PM 59.0 °F - 35.6 °F 42% 29.86 in 10.0 mi Calm Calm - N/A   Clear
6:55 PM 57.2 °F - 35.6 °F 44% 29.87 in 10.0 mi Calm Calm - N/A   Clear
7:15 PM 55.4 °F - 37.4 °F 51% 29.87 in 10.0 mi Calm Calm - N/A   Clear
7:35 PM 55.4 °F - 37.4 °F 51% 29.87 in 10.0 mi Calm Calm - N/A   Clear
7:55 PM 53.6 °F - 37.4 °F 54% 29.87 in 10.0 mi Calm Calm - N/A   Clear
8:15 PM 53.6 °F - 37.4 °F 54% 29.87 in 10.0 mi Calm Calm - N/A   Clear
8:35 PM 53.6 °F - 37.4 °F 54% 29.87 in 10.0 mi Calm Calm - N/A   Clear
8:55 PM 51.8 °F - 41.0 °F 67% 29.87 in 10.0 mi ESE 8.1 mph - N/A   Clear
9:15 PM 51.8 °F - 42.8 °F 71% 29.88 in 10.0 mi ESE 5.8 mph - N/A   Clear
9:35 PM 51.8 °F - 42.8 °F 71% 29.88 in 10.0 mi ESE 5.8 mph - N/A   Clear
9:55 PM 51.8 °F - 42.8 °F 71% 29.87 in 10.0 mi SE 5.8 mph - N/A   Clear
10:15 PM 51.8 °F - 42.8 °F 71% 29.88 in 10.0 mi SE 4.6 mph - N/A   Clear
10:35 PM 51.8 °F - 42.8 °F 71% 29.88 in 10.0 mi SE 4.6 mph - N/A   Clear
10:55 PM 51.8 °F - 42.8 °F 71% 29.88 in 10.0 mi SE 3.5 mph - N/A   Clear
11:15 PM 50.0 °F - 42.8 °F 76% 29.87 in 10.0 mi Calm Calm - N/A   Clear
11:35 PM 50.0 °F - 42.8 °F 76% 29.87 in 10.0 mi Calm Calm - N/A   Clear
11:55 PM 50.0 °F - 42.8 °F 76% 29.87 in 10.0 mi SE 3.5 mph - N/A   Clear